| time (UTC) | temp C | wind direction | speed KPH | gust KPH | rain 1hr cm | rain 24hr cm | rain mn cm | humidity % | barometer mb |
| 20260901063545 | 13 | 208 | 0.0 | 0.0 | 0.00 | 0.00 | 0.00 | 82 | 987.2 |
| 20260901063541 | 13 | 162 | 0.0 | 0.0 | 0.00 | 0.00 | 0.00 | 81 | 987.3 |
| 20260901062541 | 13 | 203 | 0.0 | 0.0 | 0.00 | 0.00 | 0.00 | 81 | 987.2 |
| 20260901062042 | 13 | 203 | 0.0 | 0.0 | 0.00 | 0.00 | 0.00 | 82 | 987.2 |
| 20260901061541 | 14 | 203 | 0.0 | 0.0 | 0.00 | 0.00 | 0.00 | 82 | 987.3 |
| 20260901061041 | 14 | 203 | 0.0 | 0.0 | 0.00 | 0.00 | 0.00 | 81 | 987.3 |
| 20260901060541 | 14 | 203 | 0.0 | 0.0 | 0.00 | 0.00 | 0.00 | 81 | 987.3 |
| 20260901060044 | 14 | 155 | 0.0 | 0.0 | 0.00 | 0.00 | 0.00 | 81 | 987.3 |
| 20260901060040 | 14 | 153 | 0.0 | 0.0 | 0.00 | 0.00 | 0.00 | 81 | 987.3 |
| 20260901055038 | 14 | 153 | 0.0 | 0.0 | 0.00 | 0.00 | 0.00 | 80 | 987.4 |
| 20260901054538 | 14 | 154 | 0.0 | 0.0 | 0.00 | 0.00 | 0.00 | 80 | 987.6 |
| 20260901054038 | 14 | 154 | 0.0 | 0.0 | 0.00 | 0.00 | 0.00 | 81 | 987.7 |
| 20260901053537 | 14 | 154 | 0.0 | 0.0 | 0.00 | 0.00 | 0.00 | 81 | 987.7 |
| 20260901053038 | 14 | 154 | 0.0 | 0.0 | 0.00 | 0.00 | 0.00 | 81 | 987.8 |
| 20260901052538 | 14 | 154 | 0.0 | 0.0 | 0.00 | 0.00 | 0.00 | 81 | 987.7 |
| 20260901052036 | 14 | 154 | 0.0 | 0.0 | 0.00 | 0.00 | 0.00 | 80 | 987.7 |
| 20260901051542 | 14 | 154 | 0.0 | 0.0 | 0.00 | 0.00 | 0.00 | 79 | 987.7 |
| 20260901051537 | 14 | 154 | 0.0 | 0.0 | 0.00 | 0.00 | 0.00 | 79 | 987.7 |
| 20260901051142 | 15 | 153 | 0.0 | 3.2 | 0.00 | 0.00 | 0.00 | 79 | 987.7 |
| 20260901050035 | 15 | 153 | 0.0 | 3.2 | 0.00 | 0.00 | 0.00 | 79 | 987.7 |
| 20260901045536 | 15 | 179 | 0.0 | 1.6 | 0.00 | 0.00 | 0.00 | 80 | 987.8 |
| 20260901045037 | 15 | 159 | 0.0 | 3.2 | 0.00 | 0.00 | 0.00 | 80 | 987.7 |
| 20260901044536 | 15 | 186 | 0.0 | 3.2 | 0.00 | 0.00 | 0.00 | 79 | 987.7 |
| 20260901044036 | 15 | 195 | 0.0 | 4.8 | 0.00 | 0.00 | 0.00 | 80 | 987.7 |
| 20260901043536 | 15 | 195 | 0.0 | 4.8 | 0.00 | 0.03 | 0.00 | 81 | 987.8 |
| 20260901043034 | 15 | 191 | 0.0 | 0.0 | 0.00 | 0.03 | 0.00 | 81 | 987.7 |
| 20260901042540 | 15 | 185 | 0.0 | 4.8 | 0.00 | 0.10 | 0.00 | 81 | 987.4 |
| 20260901042534 | 14 | 212 | 0.0 | 0.0 | 0.00 | 0.08 | 0.00 | 82 | 987.4 |
| 20260901042035 | 15 | 212 | 0.0 | 0.0 | 0.00 | 0.10 | 0.00 | 81 | 987.3 |
| 20260901041034 | 15 | 165 | 0.0 | 4.8 | 0.00 | 0.13 | 0.00 | 80 | 987.4 |
| 20260901040535 | 15 | 152 | 0.0 | 3.2 | 0.00 | 0.13 | 0.00 | 79 | 987.4 |
| 20260901040033 | 15 | 257 | 0.0 | 0.0 | 0.00 | 0.13 | 0.00 | 78 | 987.4 |
| 20260901035534 | 15 | 257 | 0.0 | 0.0 | 0.00 | 0.13 | 0.00 | 78 | 987.6 |
| 20260901035033 | 15 | 257 | 0.0 | 0.0 | 0.00 | 0.13 | 0.00 | 78 | 987.8 |
| 20260901034532 | 15 | 229 | 0.0 | 1.6 | 0.00 | 0.13 | 0.00 | 78 | 987.7 |
| 20260901034031 | 15 | 310 | 0.0 | 1.6 | 0.00 | 0.13 | 0.00 | 79 | 987.7 |
| 20260901033532 | 15 | 335 | 0.0 | 1.6 | 0.00 | 0.13 | 0.00 | 80 | 987.8 |
| 20260901033031 | 15 | 353 | 0.0 | 0.0 | 0.00 | 0.13 | 0.00 | 80 | 987.9 |
| 20260901032532 | 15 | 353 | 0.0 | 1.6 | 0.00 | 0.13 | 0.00 | 79 | 987.9 |
| 20260901032032 | 16 | 353 | 0.0 | 1.6 | 0.00 | 0.13 | 0.00 | 78 | 987.9 |
| 20260901031531 | 16 | 337 | 0.0 | 3.2 | 0.00 | 0.13 | 0.00 | 76 | 987.9 |
| 20260901031032 | 16 | 335 | 0.0 | 3.2 | 0.00 | 0.13 | 0.00 | 75 | 988.0 |
| 20260901030531 | 16 | 328 | 0.0 | 3.2 | 0.00 | 0.13 | 0.00 | 74 | 988.2 |
| 20260901030032 | 16 | 14 | 0.0 | 3.2 | 0.00 | 0.13 | 0.00 | 73 | 988.0 |
| 20260901025531 | 16 | 330 | 0.0 | 3.2 | 0.00 | 0.13 | 0.00 | 74 | 988.0 |
| 20260901025032 | 16 | 18 | 0.0 | 4.8 | 0.00 | 0.13 | 0.00 | 74 | 987.9 |
| 20260901024532 | 16 | 315 | 0.0 | 4.8 | 0.00 | 0.13 | 0.00 | 75 | 987.8 |
| 20260901024031 | 16 | 311 | 0.0 | 8.0 | 0.00 | 0.13 | 0.00 | 75 | 987.7 |
| 20260901023531 | 16 | 293 | 1.6 | 9.7 | 0.00 | 0.13 | 0.00 | 74 | 987.6 |
| 20260901023036 | 16 | 297 | 1.6 | 12.9 | 0.00 | 0.13 | 0.00 | 73 | 987.7 |
| 20260901023032 | 16 | 227 | 1.6 | 9.7 | 0.00 | 0.13 | 0.00 | 73 | 987.7 |
| 20260901022031 | 17 | 212 | 4.8 | 17.7 | 0.00 | 0.13 | 0.00 | 71 | 987.7 |
| 20260901021531 | 17 | 198 | 8.0 | 22.5 | 0.00 | 0.13 | 0.00 | 69 | 987.6 |
| 20260901021031 | 18 | 224 | 9.7 | 27.4 | 0.00 | 0.13 | 0.00 | 65 | 987.7 |
| 20260901020531 | 18 | 290 | 14.5 | 27.4 | 0.00 | 0.13 | 0.00 | 62 | 987.8 |
| 20260901020032 | 19 | 216 | 16.1 | 37.0 | 0.00 | 0.13 | 0.00 | 59 | 987.4 |
| 20260901015536 | 22 | 224 | 9.7 | 37.0 | 0.00 | 0.13 | 0.00 | 46 | 986.7 |
| 20260901015531 | 20 | 212 | 16.1 | 37.0 | 0.00 | 0.13 | 0.00 | 54 | 987.3 |
| 20260901014531 | 22 | 148 | 3.2 | 9.7 | 0.00 | 0.13 | 0.00 | 45 | 985.9 |
| 20260901014031 | 22 | 181 | 3.2 | 9.7 | 0.00 | 0.13 | 0.00 | 44 | 985.6 |
| 20260901013532 | 22 | 226 | 1.6 | 9.7 | 0.00 | 0.13 | 0.00 | 43 | 985.3 |
| 20260901013031 | 22 | 173 | 0.0 | 6.4 | 0.00 | 0.13 | 0.00 | 42 | 985.2 |
| 20260901012531 | 23 | 205 | 1.6 | 8.0 | 0.00 | 0.13 | 0.00 | 42 | 985.2 |
| 20260901012031 | 23 | 120 | 3.2 | 19.3 | 0.00 | 0.13 | 0.00 | 42 | 985.1 |
| 20260901011540 | 23 | 182 | 6.4 | 14.5 | 0.00 | 0.13 | 0.00 | 40 | 984.8 |
| 20260901011536 | 23 | 144 | 8.0 | 19.3 | 0.00 | 0.13 | 0.00 | 40 | 985.0 |
| 20260901010531 | 24 | 115 | 1.6 | 12.9 | 0.00 | 0.13 | 0.00 | 39 | 984.6 |
| 20260901010032 | 24 | 234 | 0.0 | 6.4 | 0.00 | 0.13 | 0.00 | 42 | 984.5 |
| 20260901005531 | 25 | 231 | 0.0 | 6.4 | 0.00 | 0.13 | 0.00 | 42 | 984.5 |
| 20260901005032 | 25 | 342 | 0.0 | 1.6 | 0.00 | 0.13 | 0.00 | 41 | 984.6 |
| 20260901004531 | 25 | 352 | 0.0 | 1.6 | 0.00 | 0.13 | 0.00 | 40 | 984.7 |
| 20260901004030 | 25 | 158 | 0.0 | 3.2 | 0.00 | 0.13 | 0.00 | 38 | 984.8 |
| 20260901003528 | 25 | 165 | 0.0 | 6.4 | 0.00 | 0.13 | 0.00 | 38 | 985.0 |
| 20260901003025 | 26 | 155 | 0.0 | 6.4 | 0.00 | 0.13 | 0.00 | 37 | 985.0 |
| 20260901002525 | 25 | 261 | 0.0 | 3.2 | 0.00 | 0.13 | 0.00 | 37 | 985.0 |
| 20260901002030 | 26 | 264 | 0.0 | 3.2 | 0.00 | 0.13 | 0.00 | 36 | 985.2 |
| 20260901002026 | 25 | 113 | 0.0 | 3.2 | 0.00 | 0.13 | 0.00 | 37 | 985.1 |
| 20260901001025 | 26 | 357 | 0.0 | 3.2 | 0.00 | 0.13 | 0.00 | 35 | 985.2 |
| 20260901000524 | 26 | 124 | 0.0 | 3.2 | 0.00 | 0.13 | 0.00 | 35 | 985.2 |
| 20260901000024 | 26 | 107 | 0.0 | 4.8 | 0.00 | 0.13 | 0.00 | 34 | 985.3 |
| 20260831235521 | 26 | 220 | 0.0 | 4.8 | 0.00 | 0.13 | 0.00 | 34 | 985.3 |
| 20260831235026 | 27 | 227 | 0.0 | 4.8 | 0.00 | 0.13 | 0.00 | 32 | 985.4 |
| 20260831235022 | 26 | 276 | 0.0 | 4.8 | 0.00 | 0.13 | 0.00 | 34 | 985.4 |
| 20260831234025 | 27 | 284 | 0.0 | 3.2 | 0.00 | 0.13 | 0.00 | 32 | 985.3 |
| 20260831234021 | 27 | 56 | 0.0 | 3.2 | 0.00 | 0.13 | 0.00 | 32 | 985.3 |
| 20260831233018 | 28 | 272 | 0.0 | 3.2 | 0.00 | 0.13 | 0.00 | 31 | 985.3 |
| 20260831232521 | 28 | 145 | 0.0 | 4.8 | 0.00 | 0.13 | 0.00 | 30 | 985.4 |
| 20260831232517 | 28 | 203 | 0.0 | 3.2 | 0.00 | 0.13 | 0.00 | 31 | 985.4 |
| 20260831232123 | 28 | 227 | 0.0 | 9.7 | 0.00 | 0.13 | 0.00 | 31 | 985.6 |
| 20260831231017 | 28 | 115 | 0.0 | 9.7 | 0.00 | 0.13 | 0.00 | 31 | 985.4 |
| 20260831230519 | 27 | 151 | 0.0 | 4.8 | 0.00 | 0.13 | 0.00 | 31 | 985.4 |
| 20260831230515 | 28 | 82 | 0.0 | 3.2 | 0.00 | 0.13 | 0.00 | 30 | 985.4 |
| 20260831225515 | 27 | 124 | 0.0 | 4.8 | 0.00 | 0.13 | 0.00 | 32 | 985.6 |
| 20260831225020 | 26 | 356 | 0.0 | 3.2 | 0.00 | 0.13 | 0.00 | 33 | 985.7 |
| 20260831225014 | 26 | 242 | 0.0 | 3.2 | 0.00 | 0.13 | 0.00 | 32 | 985.6 |
| 20260831224013 | 26 | 156 | 0.0 | 3.2 | 0.00 | 0.15 | 0.00 | 32 | 985.8 |
| 20260831223513 | 26 | 341 | 0.0 | 3.2 | 0.00 | 0.15 | 0.00 | 33 | 985.8 |
| 20260831223013 | 27 | 266 | 0.0 | 1.6 | 0.00 | 0.23 | 0.00 | 32 | 985.8 |
| 20260831222620 | 28 | 319 | 0.0 | 8.0 | 0.00 | 0.41 | 0.00 | 30 | 986.0 |
| 20260831222518 | 27 | 241 | 0.0 | 3.2 | 0.00 | 0.41 | 0.00 | 31 | 986.0 |
| 20260831222513 | 27 | 248 | 0.0 | 3.2 | 0.00 | 0.41 | 0.00 | 31 | 985.9 |
| 20260831221013 | 28 | 118 | 0.0 | 11.3 | 0.00 | 0.41 | 0.00 | 29 | 986.0 |
| 20260831220514 | 28 | 134 | 1.6 | 11.3 | 0.00 | 0.41 | 0.00 | 29 | 986.0 |
| 20260831220015 | 28 | 130 | 0.0 | 6.4 | 0.00 | 0.43 | 0.00 | 29 | 986.0 |
| 20260831215512 | 29 | 195 | 0.0 | 4.8 | 0.00 | 0.46 | 0.00 | 28 | 986.0 |
| 20260831215022 | 30 | 252 | 0.0 | 4.8 | 0.00 | 0.48 | 0.00 | 30 | 986.0 |
| 20260831214512 | 30 | 236 | 0.0 | 3.2 | 0.00 | 0.51 | 0.00 | 29 | 986.1 |
| 20260831214016 | 29 | 254 | 0.0 | 4.8 | 0.00 | 0.53 | 0.00 | 29 | 986.1 |
| 20260831213511 | 28 | 199 | 1.6 | 8.0 | 0.00 | 0.53 | 0.00 | 29 | 986.3 |
| 20260831213011 | 28 | 197 | 1.6 | 9.7 | 0.00 | 0.53 | 0.00 | 29 | 986.4 |
| 20260831212512 | 28 | 191 | 0.0 | 9.7 | 0.00 | 0.53 | 0.00 | 29 | 986.4 |
| 20260831212011 | 27 | 49 | 0.0 | 4.8 | 0.00 | 0.53 | 0.00 | 30 | 986.5 |
| 20260831211510 | 27 | 125 | 0.0 | 4.8 | 0.00 | 0.53 | 0.00 | 31 | 986.7 |
| 20260831211010 | 28 | 124 | 0.0 | 1.6 | 0.00 | 0.53 | 0.00 | 29 | 986.6 |
| 20260831210510 | 28 | 124 | 0.0 | 6.4 | 0.00 | 0.53 | 0.00 | 30 | 986.6 |
| 20260831210009 | 28 | 166 | 0.0 | 6.4 | 0.00 | 0.53 | 0.00 | 28 | 986.6 |
| 20260831205509 | 28 | 129 | 0.0 | 3.2 | 0.00 | 0.53 | 0.00 | 29 | 986.6 |
| 20260831205009 | 28 | 130 | 0.0 | 3.2 | 0.00 | 0.53 | 0.00 | 30 | 986.7 |
| 20260831204508 | 27 | 129 | 1.6 | 9.7 | 0.00 | 0.53 | 0.00 | 31 | 986.9 |
| 20260831204013 | 27 | 183 | 0.0 | 8.0 | 0.00 | 0.53 | 0.00 | 31 | 987.0 |
| 20260831204009 | 27 | 135 | 1.6 | 9.7 | 0.00 | 0.53 | 0.00 | 31 | 986.9 |
| 20260831203014 | 27 | 150 | 0.0 | 3.2 | 0.00 | 0.53 | 0.00 | 31 | 987.0 |
| 20260831203010 | 27 | 139 | 0.0 | 3.2 | 0.00 | 0.53 | 0.00 | 31 | 987.0 |
| 20260831202013 | 27 | 120 | 0.0 | 4.8 | 0.00 | 0.53 | 0.00 | 31 | 987.2 |
| 20260831202009 | 27 | 150 | 0.0 | 3.2 | 0.00 | 0.53 | 0.00 | 31 | 987.0 |
| 20260831201009 | 27 | 281 | 0.0 | 4.8 | 0.00 | 0.53 | 0.00 | 30 | 987.2 |
| 20260831200510 | 27 | 143 | 0.0 | 4.8 | 0.00 | 0.53 | 0.00 | 33 | 987.2 |
| 20260831200009 | 27 | 194 | 0.0 | 4.8 | 0.00 | 0.53 | 0.00 | 32 | 987.3 |
| 20260831195509 | 27 | 129 | 0.0 | 3.2 | 0.00 | 0.53 | 0.00 | 31 | 987.3 |
| 20260831195014 | 27 | 306 | 0.0 | 6.4 | 0.00 | 0.53 | 0.00 | 31 | 987.4 |
| 20260831195009 | 27 | 309 | 0.0 | 3.2 | 0.00 | 0.53 | 0.00 | 33 | 987.4 |
| 20260831194615 | 27 | 160 | 1.6 | 8.0 | 0.00 | 0.53 | 0.00 | 33 | 987.7 |
| 20260831193507 | 27 | 168 | 1.6 | 8.0 | 0.00 | 0.53 | 0.00 | 33 | 987.7 |
| 20260831193005 | 27 | 213 | 0.0 | 3.2 | 0.00 | 0.53 | 0.00 | 33 | 987.7 |
| 20260831192505 | 27 | 200 | 0.0 | 1.6 | 0.00 | 0.53 | 0.00 | 34 | 987.7 |
| 20260831192009 | 26 | 150 | 1.6 | 6.4 | 0.00 | 0.53 | 0.00 | 35 | 987.9 |
| 20260831192005 | 26 | 134 | 1.6 | 6.4 | 0.00 | 0.53 | 0.00 | 35 | 987.7 |
| 20260831191005 | 26 | 136 | 0.0 | 4.8 | 0.00 | 0.53 | 0.00 | 35 | 987.9 |
| 20260831190510 | 26 | 207 | 0.0 | 3.2 | 0.00 | 0.53 | 0.00 | 30 | 988.0 |
| 20260831190505 | 26 | 115 | 0.0 | 4.8 | 0.00 | 0.53 | 0.00 | 34 | 987.9 |
| 20260831190005 | 26 | 123 | 0.0 | 4.8 | 0.00 | 0.53 | 0.00 | 34 | 987.9 |
| 20260831185005 | 26 | 134 | 0.0 | 3.2 | 0.00 | 0.53 | 0.00 | 33 | 988.2 |
| 20260831184505 | 26 | 146 | 0.0 | 6.4 | 0.00 | 0.53 | 0.00 | 34 | 988.2 |
| 20260831184005 | 26 | 138 | 0.0 | 6.4 | 0.00 | 0.53 | 0.00 | 33 | 988.2 |
| 20260831183502 | 26 | 357 | 0.0 | 1.6 | 0.00 | 0.53 | 0.00 | 33 | 988.2 |
| 20260831183002 | 26 | 264 | 0.0 | 3.2 | 0.00 | 0.53 | 0.00 | 33 | 988.3 |
| 20260831182501 | 26 | 319 | 0.0 | 3.2 | 0.00 | 0.53 | 0.00 | 34 | 988.3 |
| 20260831182001 | 26 | 352 | 0.0 | 3.2 | 0.00 | 0.53 | 0.00 | 33 | 988.3 |
| 20260831181505 | 26 | 259 | 0.0 | 1.6 | 0.00 | 0.53 | 0.00 | 36 | 988.4 |
| 20260831181501 | 26 | 319 | 0.0 | 3.2 | 0.00 | 0.53 | 0.00 | 35 | 988.4 |
| 20260831180501 | 25 | 5 | 0.0 | 4.8 | 0.00 | 0.53 | 0.00 | 33 | 988.5 |
| 20260831180000 | 25 | 342 | 0.0 | 4.8 | 0.00 | 0.53 | 0.00 | 36 | 988.5 |
| 20260831175501 | 25 | 165 | 0.0 | 3.2 | 0.00 | 0.53 | 0.00 | 35 | 988.6 |
| 20260831175001 | 25 | 25 | 0.0 | 8.0 | 0.00 | 0.53 | 0.00 | 37 | 988.5 |
| 20260831174505 | 25 | 134 | 0.0 | 6.4 | 0.00 | 0.53 | 0.00 | 36 | 988.5 |
| 20260831174501 | 25 | 342 | 0.0 | 8.0 | 0.00 | 0.53 | 0.00 | 35 | 988.5 |
| 20260831173505 | 25 | 354 | 0.0 | 4.8 | 0.00 | 0.53 | 0.00 | 35 | 988.6 |
| 20260831173501 | 25 | 14 | 0.0 | 3.2 | 0.00 | 0.53 | 0.00 | 35 | 988.5 |
| 20260831173107 | 25 | 164 | 0.0 | 4.8 | 0.00 | 0.53 | 0.00 | 35 | 988.6 |
| 20260831172000 | 25 | 147 | 0.0 | 1.6 | 0.00 | 0.53 | 0.00 | 36 | 988.5 |
| 20260831171500 | 25 | 255 | 0.0 | 1.6 | 0.00 | 0.53 | 0.00 | 37 | 988.5 |
| 20260831171001 | 25 | 295 | 0.0 | 1.6 | 0.00 | 0.53 | 0.00 | 36 | 988.6 |
| 20260831170501 | 25 | 229 | 0.0 | 1.6 | 0.00 | 0.53 | 0.00 | 37 | 988.6 |
| 20260831170002 | 25 | 229 | 0.0 | 1.6 | 0.00 | 0.53 | 0.00 | 37 | 988.6 |
| 20260831165501 | 25 | 180 | 0.0 | 4.8 | 0.00 | 0.53 | 0.00 | 36 | 988.6 |
| 20260831165000 | 25 | 220 | 0.0 | 4.8 | 0.00 | 0.53 | 0.00 | 36 | 988.6 |
| 20260831164501 | 25 | 303 | 0.0 | 3.2 | 0.00 | 0.53 | 0.00 | 37 | 988.6 |
| 20260831163958 | 25 | 135 | 0.0 | 3.2 | 0.00 | 0.53 | 0.00 | 37 | 988.6 |
| 20260831163459 | 24 | 170 | 0.0 | 3.2 | 0.00 | 0.53 | 0.00 | 36 | 988.6 |
| 20260831162959 | 24 | 150 | 0.0 | 6.4 | 0.00 | 0.53 | 0.00 | 40 | 988.5 |
| 20260831162458 | 23 | 319 | 1.6 | 6.4 | 0.00 | 0.53 | 0.00 | 40 | 988.5 |
| 20260831161958 | 23 | 342 | 1.6 | 6.4 | 0.00 | 0.53 | 0.00 | 38 | 988.5 |
| 20260831161456 | 23 | 347 | 1.6 | 4.8 | 0.00 | 0.53 | 0.00 | 37 | 988.5 |
| 20260831161007 | 23 | 324 | 0.0 | 8.0 | 0.00 | 0.53 | 0.00 | 39 | 988.4 |
| 20260831160957 | 23 | 349 | 1.6 | 8.0 | 0.00 | 0.53 | 0.00 | 38 | 988.4 |
| 20260831160000 | 23 | 265 | 0.0 | 3.2 | 0.00 | 0.53 | 0.00 | 41 | 988.4 |
| 20260831155956 | 23 | 326 | 0.0 | 1.6 | 0.00 | 0.53 | 0.00 | 42 | 988.4 |
| 20260831154957 | 23 | 352 | 0.0 | 4.8 | 0.00 | 0.53 | 0.00 | 41 | 988.3 |
| 20260831154456 | 23 | 307 | 0.0 | 4.8 | 0.00 | 0.53 | 0.00 | 41 | 988.3 |
| 20260831153956 | 23 | 229 | 0.0 | 1.6 | 0.00 | 0.53 | 0.00 | 40 | 988.3 |
| 20260831153456 | 23 | 254 | 0.0 | 0.0 | 0.00 | 0.53 | 0.00 | 40 | 988.2 |
| 20260831152956 | 23 | 272 | 0.0 | 0.0 | 0.00 | 0.53 | 0.00 | 42 | 988.2 |
| 20260831152500 | 22 | 193 | 0.0 | 1.6 | 0.00 | 0.53 | 0.00 | 42 | 988.3 |
| 20260831152456 | 22 | 192 | 0.0 | 1.6 | 0.00 | 0.53 | 0.00 | 40 | 988.2 |
| 20260831151454 | 22 | 240 | 0.0 | 1.6 | 0.00 | 0.53 | 0.00 | 42 | 988.2 |
| 20260831150954 | 22 | 255 | 0.0 | 4.8 | 0.00 | 0.53 | 0.00 | 45 | 988.2 |
| 20260831150453 | 22 | 281 | 0.0 | 4.8 | 0.00 | 0.53 | 0.00 | 43 | 988.2 |
| 20260831145952 | 21 | 319 | 0.0 | 0.0 | 0.00 | 0.53 | 0.00 | 41 | 988.0 |
| 20260831145451 | 21 | 300 | 0.0 | 0.0 | 0.00 | 0.53 | 0.00 | 43 | 988.0 |
| 20260831144955 | 21 | 209 | 0.0 | 1.6 | 0.00 | 0.53 | 0.00 | 44 | 988.0 |
| 20260831144453 | 20 | 208 | 0.0 | 1.6 | 0.00 | 0.53 | 0.00 | 46 | 988.0 |
| 20260831143958 | 19 | 354 | 0.0 | 3.2 | 0.00 | 0.53 | 0.00 | 53 | 988.0 |
| 20260831143953 | 19 | 355 | 0.0 | 0.0 | 0.00 | 0.53 | 0.00 | 51 | 988.0 |
| 20260831143446 | 19 | 354 | 0.0 | 0.0 | 0.00 | 0.53 | 0.00 | 53 | 988.0 |
| 20260831143052 | 19 | 354 | 0.0 | 3.2 | 0.00 | 0.53 | 0.00 | 54 | 988.0 |
| 20260831141947 | 19 | 238 | 0.0 | 1.6 | 0.00 | 0.53 | 0.00 | 54 | 987.9 |
| 20260831141446 | 19 | 196 | 0.0 | 3.2 | 0.00 | 0.53 | 0.00 | 48 | 987.9 |
| 20260831140948 | 18 | 196 | 0.0 | 3.2 | 0.00 | 0.53 | 0.00 | 50 | 987.9 |
| 20260831140446 | 18 | 207 | 0.0 | 0.0 | 0.00 | 0.53 | 0.00 | 50 | 987.9 |
| 20260831135946 | 18 | 223 | 0.0 | 3.2 | 0.00 | 0.53 | 0.00 | 51 | 987.8 |
| 20260831135450 | 18 | 228 | 1.6 | 6.4 | 0.00 | 0.53 | 0.00 | 51 | 987.8 |
| 20260831135446 | 18 | 227 | 1.6 | 6.4 | 0.00 | 0.53 | 0.00 | 52 | 987.8 |
| 20260831134448 | 17 | 183 | 3.2 | 6.4 | 0.00 | 0.53 | 0.00 | 54 | 987.8 |
| 20260831134444 | 18 | 205 | 1.6 | 6.4 | 0.00 | 0.53 | 0.00 | 53 | 987.8 |
| 20260831133448 | 16 | 173 | 0.0 | 3.2 | 0.00 | 0.53 | 0.00 | 58 | 987.6 |
| 20260831133444 | 17 | 188 | 1.6 | 6.4 | 0.00 | 0.53 | 0.00 | 57 | 987.7 |
| 20260831132445 | 16 | 194 | 0.0 | 3.2 | 0.00 | 0.53 | 0.00 | 58 | 987.4 |
| 20260831131944 | 16 | 206 | 0.0 | 3.2 | 0.00 | 0.53 | 0.00 | 57 | 987.3 |
| 20260831131444 | 16 | 208 | 0.0 | 1.6 | 0.00 | 0.53 | 0.00 | 57 | 987.3 |
| 20260831130945 | 16 | 238 | 0.0 | 0.0 | 0.00 | 0.53 | 0.00 | 60 | 987.3 |
| 20260831130444 | 16 | 178 | 0.0 | 0.0 | 0.00 | 0.53 | 0.00 | 57 | 987.1 |
| 20260831125944 | 16 | 191 | 0.0 | 4.8 | 0.00 | 0.53 | 0.00 | 55 | 987.1 |
| 20260831125442 | 16 | 191 | 0.0 | 4.8 | 0.00 | 0.53 | 0.00 | 55 | 987.0 |
| 20260831124941 | 16 | 217 | 1.6 | 8.0 | 0.00 | 0.53 | 0.00 | 55 | 986.9 |
| 20260831124443 | 16 | 218 | 1.6 | 8.0 | 0.00 | 0.53 | 0.00 | 55 | 986.9 |
| 20260831123943 | 17 | 204 | 1.6 | 9.7 | 0.00 | 0.53 | 0.00 | 54 | 986.9 |
| 20260831123442 | 17 | 215 | 3.2 | 9.7 | 0.00 | 0.53 | 0.00 | 54 | 986.9 |
| 20260831122942 | 17 | 195 | 3.2 | 8.0 | 0.00 | 0.53 | 0.00 | 54 | 986.9 |
| 20260831122441 | 17 | 197 | 3.2 | 8.0 | 0.00 | 0.53 | 0.00 | 53 | 986.7 |
| 20260831121944 | 17 | 226 | 4.8 | 9.7 | 0.00 | 0.53 | 0.00 | 53 | 986.7 |
| 20260831121441 | 17 | 227 | 6.4 | 12.9 | 0.00 | 0.53 | 0.00 | 53 | 986.7 |
| 20260831120941 | 17 | 181 | 6.4 | 12.9 | 0.00 | 0.53 | 0.00 | 53 | 986.7 |
| 20260831120438 | 17 | 208 | 4.8 | 9.7 | 0.00 | 0.53 | 0.00 | 53 | 986.6 |
| 20260831115938 | 17 | 197 | 3.2 | 9.7 | 0.00 | 0.53 | 0.00 | 54 | 986.6 |
| 20260831115438 | 17 | 152 | 3.2 | 9.7 | 0.00 | 0.53 | 0.00 | 54 | 986.6 |
| 20260831114938 | 17 | 216 | 1.6 | 4.8 | 0.00 | 0.53 | 0.00 | 54 | 986.6 |
| 20260831114436 | 17 | 193 | 1.6 | 4.8 | 0.00 | 0.53 | 0.00 | 55 | 986.6 |
| 20260831113935 | 17 | 182 | 1.6 | 4.8 | 0.00 | 0.53 | 0.00 | 56 | 986.5 |
| 20260831113434 | 16 | 167 | 1.6 | 8.0 | 0.00 | 0.53 | 0.00 | 56 | 986.5 |
| 20260831112934 | 17 | 205 | 3.2 | 8.0 | 0.00 | 0.53 | 0.00 | 56 | 986.5 |
| 20260831112433 | 16 | 203 | 3.2 | 8.0 | 0.00 | 0.53 | 0.00 | 57 | 986.5 |
| 20260831111932 | 16 | 212 | 3.2 | 8.0 | 0.00 | 0.53 | 0.00 | 57 | 986.5 |
| 20260831111432 | 16 | 207 | 3.2 | 6.4 | 0.00 | 0.53 | 0.00 | 58 | 986.5 |
| 20260831110931 | 16 | 221 | 3.2 | 6.4 | 0.00 | 0.53 | 0.00 | 59 | 986.5 |
| 20260831110429 | 16 | 211 | 3.2 | 6.4 | 0.00 | 0.53 | 0.00 | 61 | 986.4 |
| 20260831105934 | 15 | 192 | 1.6 | 4.8 | 0.00 | 0.53 | 0.00 | 63 | 986.5 |
| 20260831105929 | 15 | 218 | 3.2 | 4.8 | 0.00 | 0.53 | 0.00 | 62 | 986.5 |
| 20260831104932 | 15 | 205 | 1.6 | 3.2 | 0.00 | 0.53 | 0.00 | 64 | 986.4 |
| 20260831104928 | 15 | 203 | 0.0 | 3.2 | 0.00 | 0.53 | 0.00 | 64 | 986.4 |
| 20260831103931 | 15 | 231 | 0.0 | 0.0 | 0.00 | 0.53 | 0.00 | 64 | 986.4 |
| 20260831103927 | 15 | 205 | 0.0 | 3.2 | 0.00 | 0.53 | 0.00 | 64 | 986.4 |
| 20260831103532 | 15 | 193 | 0.0 | 3.2 | 0.00 | 0.53 | 0.00 | 65 | 986.3 |
| 20260831103032 | 15 | 231 | 0.0 | 0.0 | 0.00 | 0.53 | 0.00 | 64 | 986.4 |
| 20260831101924 | 15 | 188 | 0.0 | 3.2 | 0.00 | 0.53 | 0.00 | 64 | 986.4 |
| 20260831101424 | 15 | 211 | 0.0 | 3.2 | 0.00 | 0.53 | 0.00 | 65 | 986.4 |
| 20260831100928 | 15 | 205 | 0.0 | 1.6 | 0.00 | 0.53 | 0.00 | 68 | 986.4 |
| 20260831100924 | 15 | 210 | 0.0 | 1.6 | 0.00 | 0.53 | 0.00 | 66 | 986.3 |
| 20260831095924 | 15 | 222 | 0.0 | 0.0 | 0.00 | 0.53 | 0.00 | 68 | 986.4 |
| 20260831095428 | 15 | 216 | 0.0 | 0.0 | 0.00 | 0.53 | 0.00 | 67 | 986.3 |
| 20260831095424 | 15 | 216 | 0.0 | 0.0 | 0.00 | 0.53 | 0.00 | 67 | 986.3 |
| 20260831094424 | 15 | 215 | 0.0 | 0.0 | 0.00 | 0.53 | 0.00 | 67 | 986.1 |
| 20260831093922 | 15 | 207 | 0.0 | 0.0 | 0.00 | 0.53 | 0.00 | 67 | 986.0 |
| 20260831093426 | 15 | 195 | 1.6 | 4.8 | 0.00 | 0.53 | 0.00 | 67 | 986.0 |
| 20260831093422 | 15 | 193 | 0.0 | 1.6 | 0.00 | 0.53 | 0.00 | 68 | 986.0 |
| 20260831092422 | 15 | 158 | 1.6 | 4.8 | 0.00 | 0.53 | 0.00 | 67 | 986.0 |
| 20260831091922 | 15 | 207 | 0.0 | 3.2 | 0.00 | 0.53 | 0.00 | 68 | 986.1 |
| 20260831091422 | 15 | 196 | 0.0 | 1.6 | 0.00 | 0.53 | 0.00 | 68 | 986.3 |
| 20260831090922 | 14 | 243 | 0.0 | 1.6 | 0.00 | 0.53 | 0.00 | 72 | 986.3 |
| 20260831090426 | 14 | 101 | 0.0 | 0.0 | 0.00 | 0.53 | 0.00 | 72 | 986.4 |
| 20260831090422 | 14 | 101 | 0.0 | 0.0 | 0.00 | 0.53 | 0.00 | 72 | 986.4 |
| 20260831090027 | 14 | 102 | 0.0 | 0.0 | 0.00 | 0.53 | 0.00 | 73 | 986.4 |
| 20260831084922 | 13 | 100 | 0.0 | 0.0 | 0.00 | 0.53 | 0.00 | 74 | 986.1 |
| 20260831084422 | 13 | 97 | 0.0 | 0.0 | 0.00 | 0.53 | 0.00 | 74 | 986.0 |
| 20260831083921 | 13 | 97 | 0.0 | 0.0 | 0.00 | 0.53 | 0.00 | 74 | 986.0 |
| 20260831083421 | 14 | 97 | 0.0 | 0.0 | 0.00 | 0.53 | 0.00 | 74 | 986.0 |
| 20260831082925 | 14 | 97 | 0.0 | 0.0 | 0.00 | 0.53 | 0.00 | 74 | 986.4 |
| 20260831082921 | 14 | 97 | 0.0 | 0.0 | 0.00 | 0.53 | 0.00 | 73 | 986.3 |
| 20260831081919 | 15 | 97 | 0.0 | 0.0 | 0.00 | 0.53 | 0.00 | 73 | 986.4 |
| 20260831081423 | 16 | 97 | 0.0 | 0.0 | 0.00 | 0.53 | 0.00 | 67 | 986.5 |
| 20260831081419 | 15 | 97 | 0.0 | 0.0 | 0.00 | 0.53 | 0.00 | 70 | 986.4 |
| 20260831080420 | 16 | 97 | 0.0 | 3.2 | 0.00 | 0.53 | 0.00 | 64 | 986.4 |
| 20260831075917 | 16 | 97 | 1.6 | 4.8 | 0.00 | 0.53 | 0.00 | 62 | 986.4 |
| 20260831075417 | 16 | 226 | 4.8 | 9.7 | 0.00 | 0.53 | 0.00 | 62 | 986.5 |
| 20260831074921 | 16 | 182 | 3.2 | 9.7 | 0.00 | 0.53 | 0.00 | 64 | 986.5 |
| 20260831074917 | 16 | 220 | 4.8 | 9.7 | 0.00 | 0.53 | 0.00 | 63 | 986.4 |
| 20260831074523 | 16 | 212 | 1.6 | 4.8 | 0.00 | 0.53 | 0.00 | 65 | 986.6 |
| 20260831073922 | 16 | 231 | 4.8 | 12.9 | 0.00 | 0.53 | 0.00 | 63 | 986.5 |
| 20260831073418 | 16 | 203 | 1.6 | 6.4 | 0.00 | 0.53 | 0.00 | 64 | 986.5 |
| 20260831072417 | 16 | 224 | 6.4 | 12.9 | 0.00 | 0.53 | 0.00 | 63 | 986.6 |
| 20260831071918 | 16 | 219 | 8.0 | 12.9 | 0.00 | 0.53 | 0.00 | 63 | 986.6 |
| 20260831071416 | 16 | 212 | 8.0 | 14.5 | 0.00 | 0.53 | 0.00 | 64 | 986.6 |
| 20260831070915 | 16 | 226 | 6.4 | 14.5 | 0.00 | 0.53 | 0.00 | 63 | 986.6 |
| 20260831070415 | 16 | 228 | 6.4 | 12.9 | 0.00 | 0.53 | 0.00 | 65 | 986.6 |
| 20260831065921 | 16 | 203 | 6.4 | 14.5 | 0.00 | 0.53 | 0.00 | 66 | 986.7 |
| 20260831065916 | 16 | 196 | 8.0 | 14.5 | 0.00 | 0.53 | 0.00 | 65 | 986.6 |
| 20260831064912 | 16 | 193 | 4.8 | 11.3 | 0.00 | 0.53 | 0.00 | 67 | 987.0 |
| 20260831064415 | 16 | 214 | 6.4 | 14.5 | 0.00 | 0.53 | 0.00 | 67 | 987.2 |
| 20260831064411 | 16 | 211 | 6.4 | 14.5 | 0.00 | 0.53 | 0.00 | 67 | 987.0 |